This demonstration page uses our WeatherBlox Daily Observations layout. Learn more.

Left ArrowRight Arrow

41.55636, -103.73856

Hourly Observations for September 17, 2015

Temp ( °F °C ) Dew Point ( °F °C ) Humidity (%) Winds ( mph kmh ) Pressure ( in mb ) Visibility ( mi km ) Precip ( " mm )
12:53 am 00:53 Clear 64 17.8 44 6.7 48 48 WNW 9 15 29.78 1009 10 16.0934 0 0
1:53 am 01:53 Mostly Clear 62 16.7 42 5.6 48 48 WNW 7 11 29.78 1008 10 16.0934 0 0
2:53 am 02:53 Clear 60 15.6 43 6.1 53 53 WNW 8 13 29.8 1009 10 16.0934 0 0.0254
3:53 am 03:53 Clear 59 15 42 5.6 54 54 NW 8 13 29.81 1010 10 16.0934 0 0
4:53 am 04:53 Clear 55 12.8 45 7.2 69 69 WNW 6 9 29.82 1010 10 16.0934 0 0
5:53 am 05:53 Mostly Clear 57 13.9 44 6.7 62 62 NW 7 11 29.84 1011 10 16.0934 0 0.0254
6:53 am 06:53 Mostly Cloudy 57 13.9 45 7.2 64 64 NNW 3 6 29.88 1012 10 16.0934 0 0
7:53 am 07:53 Cloudy with Light Rain 57 13.9 48 8.9 72 72 WSW 6 9 29.93 1014 10 16.0934 0 0.0254
8:53 am 08:53 Cloudy 58 14.4 46 7.8 65 65 W 8 13 29.95 1014 10 16.0934 0 0.0254
9:53 am 09:53 Mostly Cloudy 59 15 46 7.8 62 62 WNW 8 13 29.96 1015 10 16.0934 0 0
10:53 am 10:53 Mostly Cloudy 60 15.6 45 7.2 58 58 WNW 5 7 29.97 1015 10 16.0934 0 0
11:53 am 11:53 Mostly Cloudy 63 17.2 43 6.1 48 48 WSW 5 7 29.96 1015 10 16.0934 0 0
12:53 pm 12:53 Cloudy 65 18.3 42 5.6 43 43 VRB 6 9 29.93 1013 10 16.0934 0 0
1:53 pm 13:53 Cloudy 65 18.3 41 5 42 42 NW 5 7 29.91 1013 10 16.0934 0 0
2:53 pm 14:53 Cloudy 66 18.9 42 5.6 42 42 NW 5 7 29.9 1012 10 16.0934 0 0
3:53 pm 15:53 Cloudy 69 20.6 42 5.6 38 38 Calm 29.88 1012 10 16.0934 0 0
4:53 pm 16:53 Mostly Cloudy 69 20.6 41 5 36 36 E 7 11 29.88 1012 10 16.0934 0 0
5:53 pm 17:53 Sunny 68 20 41 5 38 38 SE 14 22 29.86 1011 10 16.0934 0 0
6:53 pm 18:53 Cloudy with Nearby Thunderstorms 65 18.3 44 6.7 47 47 NE 6 9 29.88 1012 10 16.0934 0 0
7:13 pm 19:13 Cloudy with Light Rain 60 15.6 51 10.6 72 72 ENE 3 6 29.83 1010 6 9.65604 0.03 0.762
7:53 pm 19:53 Cloudy 59 15 52 11.1 78 78 SE 10 17 29.91 1013 10 16.0934 0.06 1.524
8:42 pm 20:42 Cloudy with Nearby Thunderstorms 57 14 52 11 82 82 SE 9 15 29.88 1012 5 8.0467 0 0
8:53 pm 20:53 Cloudy with Nearby Thunderstorms 56 13.3 52 11.1 87 87 E 9 15 29.9 1013 7 11.26538 0.04 1.016
9:09 pm 21:09 Cloudy 56 13.3 52 11.1 87 87 ENE 7 11 29.88 1012 10 16.0934 0 0.0254
9:35 pm 21:35 Cloudy with Light Thunderstorms 56 13.3 53 11.7 90 90 VRB 7 11 29.91 1013 6 9.65604 0.01 0.254
9:50 pm 21:50 Cloudy with Nearby Thunderstorms 55 13 54 12 94 94 ESE 8 13 29.91 1013 10 16.0934 0 0
9:53 pm 21:53 Cloudy with Nearby Thunderstorms 56 13.3 53 11.7 90 90 ESE 10 17 29.91 1013 10 16.0934 0.09 2.286
10:11 pm 22:11 Cloudy with Rain 56 13.3 53 11.7 90 90 E 10 17 29.88 1012 8 12.87472 0.02 0.508
10:24 pm 22:24 Cloudy with Nearby Thunderstorms 55 13 54 12 94 94 SSE 8 13 29.91 1013 10 16.0934 0 0
10:53 pm 22:53 Cloudy with Heavy Rain 55 12.8 53 11.7 93 93 S 10 17 29.94 1014 4 6.43736 0.07 1.778
11:37 pm 23:37 Cloudy with Thunderstorms 55 12.8 53 11.7 93 93 undefined N/A 29.91 1013 10 16.0934 0.03 0.762
11:53 pm 23:53 Cloudy with Thunderstorms 55 12.8 53 11.7 93 93 ESE 12 19 29.92 1013 6 9.65604 0.06 1.524

Powered by AerisWeather